FW6587 Weather Reports


Display with metric or nautical units.
time (UTC)temp
F
wind
direction
speed
MPH
gust
MPH
rain 1hr
in
rain 24hr
in
rain mn
in
humidity
%
barometer
mb
20260509163107 72 254 0.0 5.0 0.00 0.00 0.00 18 1023.5
20260509161554 72 238 0.0 7.0 0.00 0.00 0.00 20 1023.5
20260509160053 70 0 1.0 6.0 0.00 0.00 0.00 18 1023.5
20260509154554 70 51 0.0 4.0 0.00 0.00 0.00 20 1023.5
20260509153055 69 0 1.0 5.0 0.00 0.00 0.00 22 1023.6
20260509151547 68 336 2.0 7.0 0.00 0.00 0.00 21 1023.7
20260509150104 67 244 2.0 8.0 0.00 0.00 0.00 21 1023.6
20260509144656 65 271 3.0 9.0 0.00 0.00 0.00 22 1023.6
20260509143051 61 239 4.0 12.0 0.00 0.00 0.00 29 1023.4
20260509141553 59 0 1.0 9.0 0.00 0.00 0.00 32 1023.5
20260509140051 59 302 1.0 5.0 0.00 0.00 0.00 33 1023.6
20260509134551 59 0 0.0 6.0 0.00 0.00 0.00 34 1023.5
20260509133051 58 0 0.0 2.0 0.00 0.00 0.00 36 1023.7
20260509131555 57 229 0.0 2.0 0.00 0.00 0.00 37 1023.5
20260509130104 56 0 0.0 0.0 0.00 0.00 0.00 41 1023.4
20260509124610 57 0 0.0 0.0 0.00 0.00 0.00 40 1023.0
20260509123100 58 0 0.0 0.0 0.00 0.00 0.00 38 1022.8
20260509121551 59 0 0.0 0.0 0.00 0.00 0.00 36 1022.7
20260509120105 60 0 0.0 5.0 0.00 0.00 0.00 35 1022.5
20260509114603 60 0 0.0 9.0 0.00 0.00 0.00 33 1022.2
20260509113054 59 206 2.0 9.0 0.00 0.00 0.00 34 1022.0
20260509111552 58 222 1.0 5.0 0.00 0.00 0.00 36 1022.0
20260509110053 59 92 2.0 6.0 0.00 0.00 0.00 35 1021.9
20260509104553 60 0 1.0 7.0 0.00 0.00 0.00 36 1021.7
20260509103051 61 0 0.0 8.0 0.00 0.00 0.00 33 1021.8
20260509101552 61 273 0.0 9.0 0.00 0.00 0.00 33 1021.9
20260509100056 60 248 0.0 9.0 0.00 0.00 0.00 34 1021.8
20260509094553 58 217 1.0 11.0 0.00 0.00 0.00 37 1022.0
20260509093054 59 0 0.0 5.0 0.00 0.00 0.00 38 1022.0
20260509091552 57 0 0.0 8.0 0.00 0.00 0.00 39 1021.7
20260509084600 52 0 0.0 3.0 0.00 0.00 0.00 60 1021.4
20260509083054 52 247 1.0 4.0 0.00 0.00 0.00 60 1021.4
20260509081551 53 0 0.0 0.0 0.00 0.00 0.00 59 1021.6
20260509080058 54 0 0.0 0.0 0.00 0.00 0.00 59 1021.5
20260509074550 54 0 0.0 0.0 0.00 0.00 0.00 56 1021.7
20260509073057 55 0 0.0 0.0 0.00 0.00 0.00 54 1021.8
20260509071605 56 0 0.0 1.0 0.00 0.00 0.00 54 1022.0
20260509070048 56 0 0.0 5.0 0.00 0.00 0.00 53 1021.8
20260509064601 56 0 1.0 5.0 0.00 0.00 0.00 54 1022.1
20260509063054 56 184 1.0 4.0 0.00 0.00 0.00 55 1022.4
20260509061557 55 0 0.0 3.0 0.00 0.00 0.00 56 1022.4
20260509060106 55 266 0.0 2.0 0.00 0.00 0.00 57 1022.7
20260509054604 55 0 0.0 1.0 0.00 0.00 0.00 58 1022.9
20260509053056 55 0 0.0 2.0 0.00 0.00 0.00 58 1023.0
20260509051555 55 0 0.0 1.0 0.00 0.00 0.00 58 1023.2
20260509050057 56 0 0.0 1.0 0.00 0.00 0.00 58 1023.3
20260509044552 56 140 0.0 2.0 0.00 0.00 0.00 57 1023.5
20260509043057 56 0 0.0 0.0 0.00 0.00 0.00 55 1023.9
20260509041556 57 0 0.0 0.0 0.00 0.00 0.00 54 1024.0
20260509040055 58 0 0.0 1.0 0.00 0.00 0.00 52 1024.1
20260509034602 59 0 0.0 1.0 0.00 0.00 0.00 50 1024.3
20260509033057 59 0 0.0 1.0 0.00 0.00 0.00 47 1024.4
20260509031602 60 0 0.0 0.0 0.00 0.00 0.00 46 1024.2
20260509030055 61 0 0.0 0.0 0.00 0.00 0.00 45 1023.9
20260509024555 62 0 0.0 0.0 0.00 0.00 0.00 44 1023.7
20260509023057 63 0 0.0 1.0 0.00 0.00 0.00 43 1023.8
20260509021555 63 0 0.0 1.0 0.00 0.00 0.00 43 1023.5
20260509020055 63 61 0.0 0.0 0.00 0.00 0.00 43 1023.4
20260509014553 64 0 0.0 0.0 0.00 0.00 0.00 42 1023.1
20260509013110 65 96 0.0 1.0 0.00 0.00 0.00 41 1023.1
20260509011552 67 0 0.0 6.0 0.00 0.00 0.00 39 1023.0
20260509010052 68 0 0.0 0.0 0.00 0.00 0.00 37 1023.0
20260509004553 70 0 0.0 4.0 0.00 0.00 0.00 35 1022.9
20260509003050 71 76 0.0 5.0 0.00 0.00 0.00 35 1022.9
20260509001551 72 126 0.0 4.0 0.00 0.00 0.00 34 1023.0
20260509000050 71 80 0.0 3.0 0.00 0.00 0.00 36 1023.0
20260508234551 72 88 0.0 4.0 0.00 0.00 0.00 35 1023.0
20260508233054 71 133 1.0 6.0 0.00 0.00 0.00 35 1023.1
20260508231553 71 133 1.0 4.0 0.00 0.00 0.00 37 1023.1
20260508230057 70 0 1.0 7.0 0.00 0.00 0.00 34 1023.2
20260508224601 71 142 1.0 6.0 0.00 0.00 0.00 34 1023.1
20260508223050 71 0 1.0 6.0 0.00 0.00 0.00 35 1023.4
20260508221557 71 246 0.0 6.0 0.00 0.00 0.00 35 1023.5
20260508220054 70 0 0.0 2.0 0.00 0.00 0.00 37 1023.6
20260508214551 69 0 1.0 6.0 0.00 0.00 0.00 36 1023.7
20260508213107 69 254 1.0 5.0 0.00 0.00 0.00 37 1023.9
20260508211551 70 121 1.0 5.0 0.00 0.00 0.00 36 1023.9
20260508210048 70 101 2.0 8.0 0.00 0.00 0.00 38 1024.2
20260508204553 68 288 1.0 9.0 0.00 0.00 0.00 41 1024.2
20260508203114 70 134 2.0 9.0 0.00 0.00 0.00 38 1024.4
20260508201552 69 78 3.0 9.0 0.00 0.00 0.00 40 1024.6
20260508200055 67 40 1.0 9.0 0.00 0.00 0.00 42 1024.9
20260508194549 67 0 1.0 7.0 0.00 0.00 0.00 40 1024.9
20260508193125 67 0 2.0 8.0 0.00 0.00 0.00 43 1025.0
20260508191555 67 138 1.0 8.0 0.00 0.00 0.00 42 1025.1
20260508190058 65 61 1.0 7.0 0.00 0.00 0.00 44 1025.1
20260508184614 65 111 3.0 10.0 0.00 0.00 0.00 44 1025.3
20260508183051 65 103 3.0 10.0 0.00 0.00 0.00 43 1025.5
20260508181552 63 0 0.0 6.0 0.00 0.00 0.00 45 1025.5
20260508180100 66 136 2.0 7.0 0.00 0.00 0.00 40 1025.7
20260508174615 65 149 2.0 9.0 0.00 0.00 0.00 43 1025.9
20260508173103 64 149 1.0 7.0 0.00 0.00 0.00 46 1026.0
20260508171610 63 105 1.0 5.0 0.00 0.00 0.00 48 1026.0
20260508170053 63 80 2.0 9.0 0.00 0.00 0.00 46 1026.1
20260508164554 62 109 2.0 7.0 0.00 0.00 0.00 50 1026.0